TUMNANOSAT (53464 NORAD) Tracking and Keplerian Element Data

This shows tracking and keplerian element data for the satellite.

Feedback or suggestion? Click here.




ElementValue
Catalog53464
NameTUMNANOSAT
Epoch Orbit1569
Epoch Day325.06900323
Epoch Year2022
RAAN274.3906
Inclination51.6362
Eccentricity0.0011117
Argument of Perigee123.3087
Mean Anonmoly236.8974
Mean Motion15.65466553
Decay Rate0.00094237
L11 53464U 98067UD 22325.06900323 .00094237 00000+0 91541-3 0 9996
L22 53464 51.6362 274.3906 0011117 123.3087 236.8974 15.65466553 15699



Live tracking and technical data element details for TUMNANOSAT (NORAD 53464). TUMNANOSAT can be tracked NOW for your location showing map with azimuth and elevation plus other details from your city location.







IsCatalogInMostPopularTable: catalog: 53464, numindb: 5
Update: records affected: 1



GetName: 53464 TUMNANOSAT

Hit Count: updated at: Thu, 08 Dec 2022 20:18:20 GMT